Tracking 22458 objects as of 2-Mar-2021
HD Live streaming from Space Station
objects crossing your sky now

STARLINK-2121

Track STARLINK-2121 now!
10-day predictions
STARLINK-2121 is classified as:


NORAD ID: 47399
Int'l Code: 2021-005BC
Perigee: 385.9 km
Apogee: 387.5 km
Inclination: 53.1 °
Period: 92.1 minutes
Semi major axis: 6757 km
RCS: Unknown
Launch date: January 20, 2021
Source: United States (US)
Launch site: AIR FORCE EASTERN TEST RANGE (AFETR)
aabbcc
Your satellite tracking list
Your tracking list is empty




NASA's NSSDC Master Catalog

Two Line Element Set (TLE):
1 47399U 21005BC  21060.91667824  .00047185  00000-0  51701-3 0  9994
2 47399  53.0556  12.4269 0001227  55.7032  80.2049 15.62810590  6664
Source of the keplerian elements: AFSPC